Location: Bazugues
(43.4465°N, 0.3432°E)
Time: 15:16:24
(UTC+00:00)

Meteor 1-15 Rocket - Visible Passes

Search period start: 11 April 2026 00:00
Search period end: 21 April 2026 00:00
Orbit: 838 x 906 km, 81.2° (Epoch: 11 April)

Date Brightness Start Highest point End Pass type
(mag) Time Alt. Az. Time Alt. Az. Time Alt. Az.
11 Apr 7.8 04:39:22 10° NE 04:40:24 10° ENE 04:41:26 10° ENE visible
11 Apr 4.2 19:33:00 10° S 19:38:34 87° E 19:44:10 10° N visible
11 Apr 7.1 21:20:03 10° W 21:22:46 14° WNW 21:25:29 10° NNW visible
12 Apr 7.8 04:33:18 10° NE 04:34:50 11° ENE 04:36:22 10° ENE visible
12 Apr 4.2 19:27:23 10° S 19:32:56 90° SSE 19:38:33 10° N visible
12 Apr 7.2 21:14:40 10° W 21:17:12 13° WNW 21:19:43 10° NNW visible
13 Apr 7.8 04:27:23 10° NE 04:29:16 12° ENE 04:31:10 10° E visible
13 Apr 4.3 19:21:46 10° S 19:27:20 87° W 19:32:56 10° N visible
13 Apr 7.3 21:09:18 10° W 21:11:37 12° WNW 21:13:56 10° NW visible
14 Apr 7.7 04:21:31 10° NE 04:23:42 12° ENE 04:25:54 10° E visible
14 Apr 4.3 19:16:10 10° S 19:21:43 84° W 19:27:20 10° N visible
14 Apr 7.3 21:03:58 10° W 21:06:02 12° WNW 21:08:07 10° NW visible
15 Apr 7.7 04:15:42 10° NE 04:18:08 13° ENE 04:20:36 10° E visible
15 Apr 4.4 19:10:33 10° SSW 19:16:05 80° W 19:21:43 10° N visible
15 Apr 7.4 20:58:40 10° WNW 21:00:28 11° WNW 21:02:17 10° NW visible
16 Apr 7.7 04:09:54 10° NNE 04:12:34 13° ENE 04:15:15 10° E visible
16 Apr 4.5 19:04:56 10° SSW 19:10:29 77° W 19:16:06 10° N visible
16 Apr 7.5 20:53:26 10° WNW 20:54:54 11° WNW 20:56:23 10° NW visible
17 Apr 7.7 04:04:07 10° NNE 04:07:00 14° ENE 04:09:54 10° E visible
17 Apr 7.7 20:48:17 10° WNW 20:49:20 10° WNW 20:50:23 10° NW visible
18 Apr 7.6 03:58:22 10° NNE 04:01:26 14° ENE 04:04:31 10° E visible
19 Apr 7.6 03:52:37 10° NNE 03:55:52 15° ENE 03:59:07 10° E visible
20 Apr 7.5 03:46:52 10° NNE 03:50:17 16° ENE 03:53:43 10° E visible
